User: anonymous   Login
Location: C.E.K. Mees Observatory
(42.7003°N, 77.4088°W)
Time: 20:30:55
(UTC-05:00)
Language:

Envisat - Orbit

View from above orbital plane
View from above orbital plane
View from above satellite
View from above satellite

Ground track
Ground track

The orbit data is extracted from the following two-line orbital elements,

1 27386U 02009A   18018.75514348  .00000002  00000-0  14326-4 0  9994
2 27386  98.2050  59.7074 0001419  83.2463 276.8882 14.37913503832050
Epoch (UTC): 18 January 2018 18:07:24
Eccentricity: 0.0001419
inclination: 98.2050°
perigee height: 764 km
apogee height: 766 km
right ascension of ascending node: 59.7074°
argument of perigee: 83.2463°
revolutions per day: 14.37913503
mean anomaly at epoch: 276.8882°
orbit number at epoch: 83205

The dashed part of the orbit path shows where the satellite is in the earth's shadow,  

DLR